CAPE
0 0 0 0 0 0 0 0 0 0 0 0 0 0 0 0 0 0 0 0 0 0 0 0 0 0 0 0 0 0 1 1
0 0 0 0 0 0 0 0 0 0 0 0 0 0 0 0 0 0 0 0 0 0 0 0 0 1 0 0 1 0 2 1
0 0 0 0 0 0 0 0 0 0 0 0 0 0 0 0 0 0 0 0 0 0 0 1 1 1 1 0 1 0 2 1
0 0 0 0 0 0 0 0 0 0 0 0 0 0 0 0 0 0 0 0 0 0 0 1 0 2 1 1 1 2 3 1
0 0 0 0 0 0 0 0 0 0 0 0 0 0 0 0 0 0 0 0 0 0 1 0 1 1 1 1 0 2 1 3
0 0 0 0 0 0 0 0 0 0 0 0 0 0 0 0 0 0 0 0 0 0 1 1 1 1 0 1 1 1 1 2
0 0 0 0 0 0 0 0 0 0 0 0 0 0 0 0 0 0 0 0 0 0 1 0 1 0 0 0 0 1 1 1
0 0 0 0 0 0 0 0 0 0 0 0 0 0 0 0 0 0 0 0 0 0 0 0 0 0 0 0 0 1 1 1
0 0 0 0 0 0 0 0 0 0 0 0 0 0 0 0 0 0 0 0 0 0 0 0 0 0 0 0 0 1 0 1
0 0 0 0 0 0 0 0 0 0 0 0 0 0 0 0 0 0 0 0 0 0 0 0 0 0 0 1 0 0 1 1
0 0 0 0 0 0 0 0 0 0 0 0 0 0 0 0 0 0 0 0 0 0 0 0 0 0 0 0 0 0 0 1
0 0 0 0 0 0 0 0 0 0 0 0 0 0 0 0 0 0 0 0 0 0 0 0 0 0 0 0 0 0 0 0
0 0 0 0 0 0 0 0 0 0 0 0 0 0 0 0 0 0 0 0 0 0 0 0 0 0 0 0 0 0 0 1
0 0 0 0 0 0 0 0 0 0 0 0 0 0 0 0 0 0 0 0 0 0 0 0 0 0 0 0 0 0 0 0
0 0 0 0 0 0 0 0 0 0 0 0 0 0 0 0 0 0 0 0 0 0 0 0 0 0 0 0 0 0 0 0
0 0 0 0 0 0 0 0 0 0 0 0 0 0 0 0 0 0 0 0 0 0 0 0 0 0 0 0 0 0 0 0
0 0 0 0 0 0 0 0 0 0 0 0 0 0 0 0 0 0 0 0 0 0 0 0 0 0 0 0 0 0 0 0
0 0 0 0 0 0 0 0 0 0 0 0 0 0 0 0 0 0 0 0 0 0 0 0 0 0 0 0 0 0 0 0
0 0 0 0 0 0 0 0 0 0 0 0 0 0 0 0 0 0 0 0 0 0 0 0 0 0 0 0 0 0 0 0
CIN
0 0 0 0 0 0 0 0 0 0 0 0 0 0 0 0 0 0 0 0 0 0 0 0 0 -0 -0 -0 0 0 0 0
0 0 0 0 0 0 0 0 0 0 0 0 0 0 0 0 0 0 0 0 0 0 0 0 0 0 0 0 0 0 0 0
0 0 0 0 0 0 0 0 0 0 0 0 0 0 0 0 0 0 0 0 0 0 0 0 0 0 0 0 0 0 0 0
0 0 0 0 0 0 0 0 0 0 0 0 0 0 0 0 0 0 0 0 0 0 0 0 -0 0 0 0 0 0 0 0
0 0 0 0 0 0 0 0 0 0 0 0 0 0 0 0 0 0 0 0 0 0 0 0 0 0 0 0 -0 0 0 0
0 0 0 0 0 0 0 0 0 0 0 0 0 0 0 0 0 0 0 0 0 0 0 0 0 0 0 0 0 0 0 0
0 0 0 0 0 0 0 0 0 0 0 0 0 0 0 0 0 0 0 0 0 0 0 0 0 0 0 0 0 0 0 0
0 0 0 0 0 0 0 0 0 0 0 0 0 0 0 0 0 0 0 0 0 0 0 0 0 0 0 0 -0 0 0 0
0 0 0 0 0 0 0 0 0 0 0 0 0 0 0 0 0 0 0 0 0 0 0 0 0 0 0 0 0 0 0 0
0 0 0 0 0 0 0 0 0 0 0 0 0 0 0 0 0 0 0 0 0 0 0 0 0 0 0 0 0 0 0 0
0 0 0 0 0 0 0 0 0 0 0 0 0 0 0 0 0 0 0 0 0 0 0 0 0 0 0 0 0 0 0 0
0 0 0 0 0 0 0 0 0 0 0 0 0 0 0 0 0 0 0 0 0 0 0 0 0 0 0 0 0 0 0 0
0 0 0 0 0 0 0 0 0 0 0 0 0 0 0 0 0 0 0 0 0 0 0 0 0 0 0 0 0 0 0 0
0 0 0 0 0 0 0 0 0 0 0 0 0 0 0 0 0 0 0 0 0 0 0 0 0 0 0 0 0 0 0 0
0 0 0 0 0 0 0 0 0 0 0 0 0 0 0 0 0 0 0 0 0 0 0 0 0 0 0 0 0 0 0 0
0 0 0 0 0 0 0 0 0 0 0 0 0 0 0 0 0 0 0 0 0 0 0 0 0 0 0 0 0 0 0 0
0 0 0 0 0 0 0 0 0 0 0 0 0 0 0 0 0 0 0 0 0 0 0 0 0 -0 -0 0 0 0 0 0
0 0 0 0 0 0 0 0 0 0 0 0 0 0 0 0 0 0 0 0 0 0 0 0 0 0 -1 0 0 0 0 0
0 0 0 0 0 0 0 0 0 0 0 0 0 0 0 0 0 0 0 0 0 0 0 0 0 -0 -1 0 0 0 0 0
Wind_Speed
6 8 10 12 13 14 16 18 21 22 21 23 25 27 30 31 33 33 34 34 35 36 36 39 39 39 39 40 41 41 41 43
6 7 9 11 13 14 15 18 22 24 25 26 27 29 30 31 32 33 33 34 35 36 36 38 39 39 39 39 39 41 40 40
6 6 8 11 11 13 15 18 21 24 25 27 27 28 28 30 32 32 33 34 35 36 37 38 39 39 39 39 39 39 36 39
7 6 7 10 11 12 14 17 21 24 26 27 28 28 29 31 33 33 32 34 34 35 36 37 37 38 39 38 37 38 38 37
10 9 9 10 12 12 14 17 21 24 27 29 31 31 31 30 32 31 31 33 33 34 35 36 37 37 38 37 36 36 35 35
10 9 8 9 10 12 14 18 22 25 28 31 31 31 30 30 30 31 31 31 33 34 34 35 36 36 37 36 35 35 34 33
9 7 7 9 12 13 17 20 23 26 29 30 31 30 30 31 31 31 31 31 32 34 33 34 34 35 35 35 34 34 33 32
8 7 9 10 12 15 19 21 24 26 28 30 29 29 29 30 31 31 32 31 31 32 34 34 33 33 33 33 33 33 33 33
6 5 6 10 13 17 19 21 23 26 28 28 28 28 28 28 29 29 29 29 30 30 32 32 32 32 31 31 31 32 33 33
6 7 8 11 15 16 17 20 22 24 24 25 27 27 27 27 28 27 28 28 29 29 30 31 31 31 30 29 30 31 32 33
6 6 7 10 13 15 16 18 20 21 21 23 25 24 24 25 26 27 27 28 28 28 29 29 30 30 30 29 30 31 32 33
7 7 7 10 12 14 15 16 18 18 19 20 21 22 23 24 25 26 27 27 28 28 28 28 29 29 30 30 30 32 32 33
8 8 9 11 13 14 15 14 16 16 16 17 19 21 22 24 25 26 26 27 27 27 27 28 28 29 29 30 30 32 33 34
12 11 11 12 12 12 13 13 13 12 13 14 16 19 21 23 23 24 25 26 26 27 27 27 28 29 30 31 31 32 33 34
14 12 12 12 11 11 11 11 9 10 11 13 14 15 17 20 21 22 24 25 26 26 27 27 28 28 30 31 32 32 33 34
13 12 12 11 10 10 9 8 8 7 9 11 12 13 14 17 20 21 23 24 25 25 26 27 28 29 29 31 32 33 34 35
13 12 11 11 9 8 7 6 5 5 7 8 9 11 11 14 17 19 21 23 24 25 26 27 28 29 30 31 32 33 35 35
13 12 11 8 7 6 5 3 3 4 6 8 9 10 10 11 14 17 19 21 23 24 25 26 27 28 30 30 31 33 34 35
14 12 9 5 4 4 3 3 3 4 6 7 9 9 9 10 12 14 17 19 22 23 24 25 26 27 29 30 30 31 33 34
Wind_Direction
317 333 340 345 350 352 353 352 351 351 352 353 352 348 347 349 348 348 349 348 347 346 344 341 339 336 334 331 327 325 321 317
308 324 335 342 347 349 349 348 347 347 346 343 341 341 344 347 349 349 349 348 347 346 344 343 342 339 336 334 331 328 327 325
295 316 330 336 343 345 347 347 348 348 347 345 344 344 348 349 348 347 347 347 346 346 345 344 344 342 340 337 334 333 333 329
276 292 316 332 337 343 347 350 349 349 348 347 345 345 345 345 344 344 346 347 348 348 347 347 346 345 342 339 337 334 330 326
278 289 305 321 331 339 348 350 349 348 348 347 346 345 344 345 345 346 346 347 348 349 349 348 347 348 345 340 337 335 335 324
269 281 301 322 336 341 346 348 346 347 348 348 348 348 347 346 347 346 346 348 349 348 349 348 349 350 345 341 338 338 338 333
269 283 304 319 328 334 337 340 343 345 347 349 349 349 348 347 346 346 347 348 347 348 349 350 350 349 345 342 343 343 342 341
254 265 297 316 317 323 330 336 339 345 349 350 350 352 352 350 349 348 348 348 348 347 348 349 349 348 345 343 346 346 344 344
255 273 307 310 310 318 330 336 343 346 348 350 352 353 353 354 355 355 355 353 350 348 347 349 348 346 344 343 347 349 349 348
248 292 303 310 311 320 331 338 342 346 350 352 353 356 359 359 0 360 357 356 353 350 347 347 347 347 346 343 345 345 346 347
274 290 309 320 321 327 333 339 344 349 353 355 358 4 5 5 5 3 1 359 357 357 351 348 346 347 347 346 348 345 347 350
280 294 308 318 323 329 334 340 345 350 355 1 7 8 9 6 7 6 1 1 0 1 353 351 348 347 347 349 349 349 350 351
293 294 302 309 316 323 328 337 343 353 3 9 10 11 9 6 6 4 6 1 2 0 356 356 353 350 351 351 350 353 353 352
300 294 295 302 313 320 326 333 343 360 7 10 9 7 8 7 12 14 11 8 5 359 359 357 357 359 356 357 358 356 356 355
302 294 290 300 312 316 324 333 350 1 4 4 5 9 12 11 16 16 15 9 3 359 3 4 6 6 5 3 360 358 358 358
304 296 293 300 308 314 321 334 347 5 3 5 7 11 14 13 14 14 14 13 11 9 5 2 2 4 3 2 1 1 1 1
313 307 303 301 304 310 319 331 352 8 13 11 14 14 14 14 14 14 13 13 12 10 8 8 5 7 7 7 6 4 3 3
318 316 310 305 302 313 319 343 5 5 14 12 10 12 13 13 16 15 14 13 12 12 10 10 10 12 7 8 7 6 5 4
323 324 325 319 320 326 355 18 15 4 5 14 16 14 14 18 17 16 15 14 15 15 13 12 12 11 10 10 9 8 6 6